Location: Domont
(49.0278°N, 2.3264°E)
Time: 10:13:13
(UTC+00:00)

DIWATA 2B (PO-101) - Pass Details

Date: 04 July 2022
Orbit: 583 x 599 km, 98.0° (Epoch: 14 August)

Event Time Altitude Azimuth Distance (km) Brightness Sun altitude
Exits shadow 00:28:22 - 120° (ESE) 2,292 ? -17.7°
Reaches altitude 10° 00:29:26 10° 112° (ESE) 1,941 ? -17.7°
Maximum altitude 00:32:37 21° 62° (ENE) 1,355 ? -17.6°
Drops below altitude 10° 00:35:49 10° 13° (NNE) 1,951 ? -17.5°
Sets 00:38:23 0° 358° (N) 2,858 ? -17.4°
